Погода Преображение

Погода Преображение : погода сейчас, прогноз погоды и архив. Всё, что Вы хотите узнать о погоде Преображение!

Хотите узнать прогноз погоды Преображение? Тогда Вам сюда: Погода Преображение

Поиск расширенной информации на нашем сайте:

Другие новости

Новости СМИ2

Главная страница сайта

Новости сайта

03.07.2017

Напоминаем, что на нашем специализированном сайте Метеоцентр.Азия вы можете получить высокодетализированные автоматические прогнозы погоды по пунктам России, СНГ и мира в авиационном формате (включающие направление и скорость ветра, видимость, явления погоды, количество и форму облачности, нижнюю и верхнюю границу облачности).

Рекомендуем: Правильная регулировка пластикового окна.

Погода Преображение - сегодня

Время (UTC), дата Ветер
(°,м/с) 
Видим.   Явления Облачность Т
(°С)
Тd
(°С)
f(%) Тe
(°С)
Pmin
(гПа)
dP
(гПа)
Po
(мм)
O2
(г/м3)
Тmin Tmax R s Состояние
почвы
03 19.11.17 210 (ЮЗ) 2{13}  20000 м    ясно 
-8.1 -23.4 28 -10  1017.8  -0.7  759  317           
06 19.11.17 240 (ЮЗ) 3{11}  20000 м    ясно 
-8.7 -23.8 28 -12  1018.4  0.6  760  318           
09 19.11.17 010 (С) 1{11}  20000 м    ясно 
-11.3 -25 31 -11  1021.2  2.7  762  322    -7.5       
12 19.11.17 250 (З) 20000 м    ясно 
-11.1 -22.5 38 -13  1022.3  1.1  762  322           
15 19.11.17 020 (С) 1{11}  20000 м    ясно 
-10.6 -23.1 35 -10  1022.2  -0.1  762  321           
18 19.11.17 360 (С) 20000 м    ясно 
-11.6 -25.2 31 -15  1022  -0.2  762  322           
21 19.11.17 020 (С) 20000 м    ясно 
-12.3 -25.9 31 -12  1021.6  -0.4  762  323  -12.3      <0.5  мокрый или
старый снег
50-90% 
00 20.11.17 230 (ЮЗ) 20000 м    ясно 
-10.1 -23.2 33 -10  1021.7  0.2  762  320  -13.6         
03 20.11.17 280 (З) 20000 м    ясно 
-6.7 -25 22 -9  1019.2  -2.5  760  316           
06 20.11.17 280 (З) 20000 м    ясно 
-4.9 -22.5 24 -7  1017.9  -1.2  759  313           
09 20.11.17 030 (СВ) 20000 м    ясно 
-7.2 -23.2 27 -7  1020.3  2.3  761  317    -4.3       
12 20.11.17 270 (З) 20000 м    ясно 
-6.7 -19.7 35 -8  1022.5  2.2  763  317           
15 20.11.17 030 (СВ) 20000 м    ясно 
-8.7 -19.6 41 -10  1023.7  1.2  764  319           
18 20.11.17 350 (С) 20000 м    ясно 
-8.6 -21 36 -10  1024.8  764  320           
21 20.11.17 080 (В) 20000 м    ясно 
-9.4 -22.1 35 -9  1026.3  1.4  765  321  -10.3      <0.5  мокрый или
старый снег
50-90% 
00 21.11.17 020 (С) 20000 м    ясно 
-8.3 -21.1 35 -13  1026.7  0.4  766  320  -11.1         
03 21.11.17 210 (ЮЗ) 20000 м    9/0 верхняя 
[Ci fib]
-2.4 -16.6 33 -4  1025.3  -1.2  765  312           
06 21.11.17 230 (ЮЗ) 20000 м    9/5 600 м средняя, верхняя 
[Sc|Ac cast|Ci fib]
-0.2 -11.3 43 -1  1023.4  -1.9  763  309           
09 21.11.17 240 (ЮЗ) 20000 м    10/0 средняя 
[Ac und]
-1.4 -9.8 53 -1  1022.4  -1  763  310    +0.1       
12 21.11.17 020 (С) 4000 м  слаб. снег  10/10 300 м 
[Frnb|Ns]
-1.4 -8.2 60 -4  1020  -2.3  761  309           
15 21.11.17 030 (СВ) 20000 м  {снег}  10/0 средняя 
[As op]
+0.3 -2.3 83 -2  1016.8  -3.2  759  306           
18 21.11.17 040 (СВ) 20000 м  {снег}  10/0 средняя 
[As op]
+0.5 -1.3 88 +1  1013.8  -2.9  756  304           
21 21.11.17 360 (С) 20000 м    ясно 
-0.1 -1.6 90 +1  1012.3  -1.6  755  305  -1.7    0.2  <0.5  равномерный
мокрый или
старый снег
100% 
00 22.11.17 020 (С) 20000 м    ясно 
+0.2 -2.2 84 -2  1011.6  -0.7  755  304           
03 22.11.17 230 (ЮЗ) 20000 м    ясно 
+7.2 +0.2 61 +7  1009.3  -2.2  753  296           
Время (UTC), дата Ветер
(°,м/с) 
Видим.   Явления Облачность Т
(°С)
Тd
(°С)
f(%) Тe
(°С)
Pmin
(гПа)
dP
(гПа)
Po
(мм)
O2
(г/м3)
Тmin Tmax R s Состояние
почвы

Для получения пояснительной информации подведите курсор к названию столбца.

ПОГОДА Преображение - архив

Всё, что Вы хотите узнать о погоде Преображение - удобно и подробно!

Выберите нужную дату (начиная с 1 января 2015* года) и нажмите кнопку "Найти".
Будут отображены архивные сводки погоды по пункту Преображение, начиная с указанной даты.


Отображать данные в формате CSV (для использования в таблицах Excel)


Внимание! Наш архив погоды предназначен исключительно для личного некоммерческого использования в познавательных целях. Если Вам необходимы официальные справки о состоянии погоды (для производственных, юридических, коммерческих и т.п. целей), обращайтесь в органы Росгидромета.

*Примечание: данная дата относится к архиву по метеостанциям СССР (Россия, СНГ, Балтия).
Архив по метеостанциям Зарубежной Европы и Азии (кроме Китая) хранится 10 дней, по другим регионам земного шара (Китай, Африка, Америка, Австралия, Океания) - 1 день.

Преображение - район местоположения метеостанции


Название, широта, долгота, высота метеостанции:
Преображение 42.9°ш. 133.9°д. 43 м над ур. моря [Российская Федерация]

Дополнительная информация

В oтличие oт бoльшинства пoгoдных сайтoв мы публикуем пoдрoбную метеoинфoрмацию в детальнoм прoфессиoнальнoм фoрмате.

Характеристики температуры и влажнoсти вoздуха измеряются на высoте 2 м в тени вдали oт зданий и деревьев.
Скoрoсть ветра измеряется на высoте 10 м (на урoвне рoста челoвека скoрoсть ветра ниже в 1.5-2 раза). Если метеoстанция нахoдится в гoрoде или в лесу, тo скoрoсть ветра занижена на 2-4 м/с пo сравнению с oткрытым местoм. Скoрoсть ветра над акватoриями крупных рек и oзёр, а также на вершинах хoлмoв на 2-5 м/с выше, чем в oбычных услoвиях.
Атмoсфернoе давление в разных тoчках местнoсти мoжет значительнo oтличаться oт давления на метеoстанции, в зависимoсти oт услoвий рельефа (при пoдъёме на 10 м давление пoнижается примернo на 1 мм рт.ст.).